Probability
1 1 2 3 3 1 0 0 0 0 0 0 0 0 0 0 0 0 0 0 0 0 0 0 0 0 0 0 0 0 0 0 0 0 0 0 0 0 0 0 0 0 0
2 2 2 3 3 2 1 0 0 0 0 0 0 0 0 0 0 0 0 0 0 0 0 0 0 0 0 0 0 0 0 0 0 0 0 0 0 0 0 0 0 0 0
3 2 2 3 3 3 1 0 0 0 0 0 0 0 0 0 0 0 0 0 0 0 0 0 0 0 0 0 0 0 0 0 0 0 0 0 0 0 0 0 0 0 0
3 3 3 3 3 3 2 1 0 0 0 0 0 0 0 0 0 0 0 0 0 0 0 0 0 0 0 0 0 0 0 0 0 0 0 0 0 0 0 0 0 0 0
3 3 3 3 4 3 3 2 1 0 0 0 0 0 0 0 0 0 0 0 0 0 0 0 0 0 0 0 0 0 0 0 0 0 0 0 0 0 0 0 0 0 0
3 3 4 4 5 5 4 3 1 0 0 0 0 0 0 0 0 0 0 0 0 0 0 0 0 0 0 0 0 0 0 0 0 0 0 0 0 0 0 0 0 0 0
2 4 5 5 6 7 6 4 2 1 0 0 0 0 0 0 0 0 0 0 0 0 0 0 0 0 0 0 0 0 0 0 0 0 0 0 0 0 0 0 0 0 0
2 4 6 6 7 8 7 5 3 1 0 0 0 0 0 0 0 0 0 0 0 0 0 0 0 0 0 0 0 0 0 0 0 0 0 0 0 0 0 0 0 0 0
1 3 4 5 6 6 6 6 5 2 0 1 1 1 1 1 0 0 0 0 0 0 0 0 0 0 0 0 0 0 0 0 0 0 0 0 0 0 0 0 0 0 0
0 1 1 2 3 4 5 6 5 3 1 2 2 2 2 2 1 0 0 0 0 0 0 0 0 0 0 0 0 0 0 0 0 0 0 0 0 0 0 0 0 0 0
0 0 0 1 3 3 4 6 6 4 2 2 3 3 3 3 2 1 0 0 0 0 0 0 0 0 0 0 0 0 0 0 0 0 0 0 0 0 0 0 0 0 0
0 0 1 3 4 3 3 5 6 4 3 1 2 3 3 3 3 2 1 0 0 0 0 0 0 0 0 0 0 1 1 1 0 0 0 0 0 0 0 0 0 0 0
0 0 1 4 5 4 4 5 6 6 4 2 2 2 3 3 3 3 2 1 0 0 0 0 0 0 0 0 0 1 2 2 1 1 1 0 0 0 0 0 0 0 0
1 1 2 4 6 6 5 6 6 6 4 3 2 1 2 3 3 3 3 2 1 0 0 0 0 0 0 0 0 1 2 2 2 2 2 1 1 0 0 0 0 0 0
2 2 3 4 5 6 6 5 4 3 2 1 1 0 1 1 2 3 3 2 1 0 0 0 0 0 0 0 0 0 1 1 2 3 3 3 2 1 0 0 0 0 0
3 3 3 3 3 4 4 2 1 1 1 0 0 0 0 0 1 2 3 2 1 0 0 0 0 0 0 0 0 0 0 0 1 1 2 3 3 2 1 0 0 0 0
3 3 2 1 1 1 1 1 1 1 0 0 0 0 0 0 0 1 2 2 1 0 0 0 0 0 0 0 0 0 0 0 0 0 1 2 3 3 2 1 0 0 0
2 1 1 0 0 0 0 1 1 1 0 0 0 0 0 1 1 0 1 2 2 1 0 0 0 0 0 0 0 0 0 0 0 0 0 2 3 3 3 2 1 1 0
1 0 0 0 0 0 0 1 1 1 0 0 0 0 1 2 2 1 0 1 1 1 0 0 0 0 0 0 0 0 0 0 0 0 0 1 3 3 3 3 3 2 1
0 0 0 0 0 0 0 0 1 1 0 0 0 1 2 3 2 1 0 0 0 0 0 0 0 0 0 0 0 0 0 0 0 0 1 1 2 2 2 2 2 2 1
0 0 0 0 0 0 0 0 1 2 1 0 0 1 2 3 3 1 0 0 0 0 0 0 0 0 0 0 0 0 0 0 0 1 2 2 1 1 1 1 1 1 0
0 0 0 0 0 0 0 0 1 2 1 0 0 0 1 2 3 3 1 0 0 0 0 0 0 0 0 0 0 0 0 0 0 1 2 2 1 0 0 0 0 0 0
0 0 0 0 0 0 0 1 1 1 1 0 0 1 1 2 3 3 2 1 0 0 0 0 0 0 0 0 0 0 0 0 0 0 1 1 0 0 0 0 0 0 0
0 0 0 0 1 1 1 2 2 1 1 1 1 2 3 3 3 3 2 1 0 0 0 0 0 0 0 0 0 0 0 0 0 0 0 0 0 0 0 0 0 0 0
0 0 0 0 1 2 2 2 3 2 2 2 3 3 3 3 3 2 1 0 0 0 0 0 0 0 0 0 0 0 0 0 0 0 0 0 0 0 0 0 0 0 0
0 0 0 0 1 1 1 1 2 3 3 3 3 3 3 3 2 1 0 0 0 0 0 0 0 0 0 0 0 0 0 0 0 0 0 0 0 0 0 0 0 0 0
Wind_Speed
5 5 6 6 6 5 5 6 6 5 4 3 3 3 2 1 1 2 2 3 3 4 4 3 3 3 3 2 2 2 3 3 2 3 3 3 3 3 2 2 2 2 2
4 5 5 5 5 6 6 6 6 5 4 3 3 3 2 1 1 1 2 3 4 3 4 3 3 3 3 3 3 3 2 2 2 2 2 3 4 3 3 2 2 2 2
9 7 6 5 5 5 6 5 5 5 4 4 3 3 3 2 2 2 1 2 3 3 3 3 3 3 3 2 2 2 3 1 2 1 3 2 1 2 3 2 2 2 2
6 6 6 5 6 5 5 5 5 5 4 4 4 5 4 2 2 1 1 1 2 2 3 3 3 2 2 2 1 2 1 2 1 1 1 1 2 2 1 3 2 2 2
8 7 7 6 6 5 5 5 5 4 4 4 4 5 3 2 1 1 2 1 1 2 2 2 2 2 2 2 2 2 2 1 1 1 0 1 1 1 2 1 3 3 2
8 7 6 5 5 5 5 5 6 4 4 4 4 4 4 3 3 2 2 1 1 1 2 2 2 2 2 1 1 2 2 2 2 1 1 1 1 0 1 1 1 2 2
8 7 6 5 6 6 6 5 6 4 3 4 4 3 4 4 4 3 2 1 1 0 0 1 1 2 1 2 2 2 2 2 2 1 1 1 1 1 1 1 1 1 2
7 8 8 7 6 7 7 6 6 5 4 4 3 3 4 3 2 2 2 2 2 1 1 1 1 1 1 2 2 2 1 1 1 1 1 1 0 0 1 2 1 0 1
7 7 7 7 6 6 6 7 6 5 4 4 3 3 3 3 2 2 2 1 1 1 1 2 1 1 1 2 2 2 1 1 1 1 1 1 0 0 0 1 2 2 1
5 6 6 6 5 5 5 5 6 6 4 4 4 3 3 3 3 3 2 1 1 1 1 1 1 1 1 2 2 1 1 2 1 1 1 1 0 1 1 0 0 1 2
6 5 5 5 5 4 5 5 4 4 4 3 3 3 3 3 3 3 2 2 1 1 1 1 1 1 1 1 2 1 1 1 1 1 1 1 1 1 1 1 1 1 1
5 5 4 4 3 3 4 4 4 4 4 4 4 3 3 3 3 3 2 2 2 1 1 2 2 1 1 1 2 1 1 1 1 0 1 0 1 1 1 1 0 0 1
3 3 3 3 3 3 3 3 3 4 3 4 4 3 3 3 3 3 2 2 2 2 2 2 2 1 1 1 1 2 1 1 1 1 1 1 1 0 1 1 0 0 0
3 3 3 3 3 3 3 3 3 3 4 4 4 4 4 3 3 3 2 2 2 2 2 2 2 1 1 1 1 2 1 1 1 1 1 1 1 1 1 0 1 0 0
3 3 2 2 2 2 2 3 3 3 4 4 4 4 4 3 3 2 2 2 2 2 2 2 1 1 1 1 2 2 2 1 1 0 1 1 0 0 0 0 1 0 0
3 2 2 1 2 3 3 3 4 3 3 4 4 3 3 3 2 2 2 2 2 2 2 2 2 1 1 0 2 2 2 1 1 1 1 1 1 1 1 1 0 1 1
3 3 3 3 3 3 3 4 4 3 3 3 3 3 4 3 3 2 2 2 2 2 1 1 2 2 2 1 1 2 2 2 2 2 1 1 1 1 0 1 2 1 1
3 3 3 2 2 2 2 3 3 3 3 3 3 3 4 3 3 3 2 2 2 2 2 2 2 2 2 2 2 3 2 2 1 2 3 2 2 1 1 1 1 1 1
3 4 4 3 2 2 3 3 3 3 3 3 3 3 4 4 3 3 3 2 2 1 2 2 2 2 2 2 3 3 2 1 1 2 2 2 3 2 2 2 1 1 2
3 3 2 2 3 2 3 4 3 3 3 3 3 3 3 4 4 4 3 2 2 2 2 1 2 2 2 3 3 3 2 1 1 1 2 2 2 2 2 2 2 1 2
2 2 3 2 2 3 4 4 3 3 3 2 1 2 2 3 4 3 2 2 2 1 1 1 1 2 2 3 3 3 2 2 2 1 1 2 1 1 1 1 2 3 1
1 2 3 2 2 3 4 4 3 2 2 1 1 2 2 2 2 3 2 2 2 2 1 0 1 1 2 2 3 3 3 3 2 2 2 2 1 2 2 2 1 1 1
1 2 3 2 2 2 4 4 3 2 2 2 1 2 2 2 2 3 3 2 2 2 1 1 1 1 1 2 2 2 3 2 2 2 3 2 2 2 2 2 1 1 1
1 1 3 3 2 2 2 3 3 3 3 2 1 2 2 2 1 1 2 2 2 2 2 1 2 2 2 2 2 2 2 2 1 1 1 2 1 1 2 1 1 1 1
1 2 2 2 2 2 2 2 3 3 3 2 2 2 2 2 2 1 1 2 2 3 3 3 2 2 3 4 3 2 2 2 2 1 1 1 0 1 1 1 1 1 1
1 1 2 2 1 2 2 1 2 3 3 2 2 2 2 1 1 1 1 2 0 1 1 1 1 2 2 2 1 1 0 0 2 2 1 1 1 1 1 1 1 1 1
Wind_Direction
189 169 162 158 148 144 145 146 139 148 142 130 121 110 108 95 64 65 72 78 75 76 78 71 62 64 72 69 66 71 57 36 43 59 26 12 27 45 40 42 50 40 29
167 165 164 162 160 161 162 158 156 156 154 150 146 142 140 128 106 71 63 71 82 82 84 79 75 68 71 58 57 69 68 36 42 90 77 17 357 2 20 26 43 33 32
175 172 170 170 154 160 169 164 166 158 154 146 124 102 78 60 51 53 54 51 89 94 91 86 82 75 83 80 71 78 93 79 9 62 118 125 230 313 337 4 19 18 27
168 167 162 160 160 167 160 150 153 148 147 141 137 137 141 149 180 171 131 88 92 104 102 97 93 87 81 80 65 77 84 103 56 5 35 129 157 146 317 329 350 1 16
170 170 169 165 161 156 150 142 130 126 130 133 146 147 142 155 144 120 101 87 71 86 96 101 95 89 80 72 64 64 67 88 108 95 52 53 51 95 137 287 323 343 345
174 172 167 153 144 139 138 133 125 125 131 131 135 142 145 138 125 124 127 114 71 57 70 94 90 90 84 78 84 83 80 81 90 85 84 105 107 159 140 195 281 305 310
173 168 161 153 154 150 146 140 135 135 137 135 137 140 143 143 147 159 156 144 119 89 118 106 105 104 103 100 89 82 77 87 92 100 99 99 134 162 155 148 227 294 303
174 174 174 166 163 160 153 147 144 146 149 150 154 146 135 132 142 151 153 161 177 185 166 130 108 98 92 84 79 78 70 72 85 84 98 85 26 117 139 158 152 14 327
176 173 169 164 163 163 164 159 156 155 161 158 148 137 135 136 136 142 144 157 165 156 133 126 119 101 89 91 92 75 58 75 77 79 87 84 13 46 90 138 153 157 200
162 165 168 167 168 171 168 162 160 166 168 161 158 145 150 147 141 125 125 130 115 110 121 123 122 112 103 97 95 85 65 78 53 74 73 36 9 36 45 89 88 148 165
161 166 165 164 162 161 161 163 163 157 155 158 153 143 149 148 136 134 140 144 131 121 135 138 129 122 131 127 115 123 107 100 56 41 70 21 32 53 36 52 64 77 126
165 161 158 152 147 156 161 165 164 159 165 162 152 154 151 149 146 145 150 139 129 128 139 129 124 118 118 136 142 154 136 140 144 143 83 18 48 44 30 59 67 110 169
147 139 142 148 157 153 156 163 164 164 164 153 148 148 149 149 156 159 156 152 141 123 112 119 126 139 142 136 145 151 152 150 163 167 163 190 111 50 358 29 312 275 326
135 128 136 154 158 158 159 162 159 161 158 147 149 156 165 167 166 160 155 162 153 139 138 143 156 161 159 158 158 149 141 141 150 161 171 183 174 193 205 247 253 241 89
123 130 140 155 160 163 165 168 166 162 159 154 160 176 173 164 153 149 158 162 157 158 160 153 169 179 188 180 150 157 149 153 158 266 249 239 210 204 193 231 214 171 141
153 154 148 144 171 184 180 172 174 177 161 163 175 174 160 156 159 165 159 151 163 168 152 169 183 197 233 188 129 151 155 169 175 218 260 275 312 354 346 343 39 97 154
171 173 179 189 193 198 185 179 181 171 159 165 177 173 165 165 177 175 160 173 182 166 160 181 183 205 230 193 173 176 162 166 187 200 223 266 302 330 275 2 25 7 9
196 196 191 194 191 182 178 172 161 163 172 175 179 182 174 176 180 174 177 181 177 179 187 190 200 213 222 203 194 164 149 154 185 213 208 208 228 230 174 136 44 326 301
201 208 199 184 168 173 176 156 154 165 172 184 190 190 181 176 175 182 187 184 174 184 202 196 193 207 234 204 177 144 148 154 217 243 239 215 209 218 144 137 159 301 307
192 195 189 157 157 171 161 148 157 166 186 199 202 193 183 179 182 187 187 181 174 189 187 205 212 216 228 204 173 148 155 168 239 276 273 253 217 191 150 160 174 223 271
191 178 160 157 175 165 149 150 161 187 211 210 197 182 176 182 181 174 170 161 160 157 162 214 258 245 231 207 191 176 174 189 208 238 262 259 243 185 187 195 201 220 217
164 167 158 164 172 159 151 158 187 204 189 164 158 168 169 177 152 144 156 158 152 148 165 218 285 280 263 231 211 202 197 195 204 231 236 239 229 231 231 233 237 214 146
160 173 163 152 158 167 161 168 194 175 153 142 155 165 152 148 151 156 159 157 160 168 186 200 230 264 275 259 237 226 219 224 228 232 233 231 227 248 255 265 260 193 179
167 143 144 147 167 180 167 172 173 155 144 148 163 151 140 133 130 145 167 170 178 183 192 204 223 241 254 251 244 234 233 238 246 245 254 253 251 246 255 262 251 232 204
174 136 140 154 173 168 158 161 159 149 147 153 167 159 150 147 143 133 177 188 201 192 188 207 206 209 238 244 236 210 215 217 212 154 43 18 333 285 295 291 273 254 243
145 131 132 132 137 136 135 138 147 148 151 155 162 165 154 156 149 135 36 358 23 152 162 178 194 238 251 229 199 238 257 178 122 104 154 225 232 232 233 245 274 274 255